Tracking 23752 objects as of 24-Oct-2021
HD Live streaming from Space Station
objects crossing your sky now

SL-14 DEB

Track SL-14 DEB now!
10-day predictions


NORAD ID: 45287
Int'l Code: 1991-056Z
Perigee: 1,098.4 km
Apogee: 1,204.1 km
Inclination: 82.6 °
Period: 108.2 minutes
Semi major axis: 7522 km
RCS: Unknown
Launch date: August 15, 1991
Source: Commonwealth of Independent States (former USSR) (CIS)
Launch site: PLESETSK MISSILE AND SPACE COMPLEX (PKMTR)

Note: This is SATELLITE DEBRIS
aabbcc
Your satellite tracking list
Your tracking list is empty




NASA's NSSDC Master Catalog

Two Line Element Set (TLE):
1 45287U 91056Z   21296.93120801  .00000367  00000-0  74143-3 0  9999
2 45287  82.5708 248.7754 0070242 315.5616  43.9891 13.30697382 81619
Source of the keplerian elements: AFSPC